DK9XR-14 Weather Reports


time (UTC)temp
F
wind
direction
speed
knots
gust
knots
rain 1hr
in
rain 24hr
in
rain mn
in
humidity
%
barometer
mb
20260507113205 51 299 1.7 4.3 0.01 0.10 0.03 87 1015.8
20260507112707 51 244 2.6 4.3 0.01 0.10 0.03 87 1015.8
20260507112204 51 286 1.7 4.3 0.01 0.10 0.03 88 1015.8
20260507111707 51 305 0.9 3.5 0.01 0.10 0.03 88 1015.8
20260507111205 51 237 1.7 3.5 0.01 0.10 0.03 88 1016.0
20260507110704 51 275 0.9 4.3 0.01 0.10 0.03 88 1015.9
20260507110201 50 265 0.9 4.3 0.01 0.10 0.03 88 1016.0
20260507105702 50 303 1.7 5.2 0.01 0.09 0.03 87 1015.9
20260507105203 51 302 3.5 5.2 0.01 0.09 0.03 87 1016.0
20260507104702 51 24 0.9 3.5 0.01 0.09 0.03 87 1016.0
20260507104202 51 288 1.7 3.5 0.00 0.09 0.02 87 1015.9
20260507103703 50 272 1.7 3.5 0.00 0.09 0.02 86 1016.0
20260507103203 50 268 1.7 4.3 0.00 0.09 0.02 86 1015.9
20260507102703 50 302 2.6 4.3 0.00 0.09 0.02 85 1015.9
20260507102202 51 278 0.9 6.1 0.00 0.09 0.02 85 1016.0
20260507101703 51 320 1.7 6.1 0.00 0.09 0.02 84 1015.9
20260507101202 51 330 2.6 7.8 0.00 0.09 0.02 84 1015.9
20260507100704 51 329 4.3 8.7 0.00 0.09 0.02 84 1015.9
20260507100203 51 347 3.5 8.7 0.00 0.09 0.02 84 1015.8
20260507095701 51 333 4.3 7.8 0.00 0.09 0.02 84 1015.8
20260507095203 51 310 3.5 7.8 0.00 0.09 0.02 86 1015.8
20260507094701 51 251 3.5 7.8 0.00 0.09 0.02 86 1015.7
20260507094202 51 340 2.6 6.1 0.00 0.09 0.02 87 1015.7
20260507093701 51 323 2.6 4.3 0.00 0.09 0.02 87 1015.7
20260507093202 51 303 1.7 5.2 0.00 0.09 0.02 87 1015.7
20260507092700 51 283 2.6 5.2 0.00 0.09 0.02 86 1015.5
20260507092159 51 298 1.7 6.1 0.00 0.09 0.02 86 1015.6
20260507091700 51 261 3.5 6.1 0.00 0.09 0.02 86 1015.5
20260507091159 51 299 2.6 8.7 0.00 0.09 0.02 87 1015.5
20260507090659 51 303 2.6 8.7 0.00 0.09 0.02 87 1015.5
20260507090158 51 309 3.5 6.1 0.00 0.09 0.02 87 1015.3
20260507085655 51 265 3.5 6.1 0.00 0.09 0.02 86 1015.3
20260507085156 51 268 0.9 6.1 0.00 0.09 0.02 89 1015.3
20260507084657 51 272 1.7 7.8 0.00 0.09 0.02 88 1015.2
20260507084154 50 296 4.3 7.8 0.00 0.09 0.02 88 1015.2
20260507083653 50 227 1.7 7.8 0.00 0.09 0.02 90 1015.2
20260507083155 50 312 5.2 7.8 0.01 0.09 0.02 89 1015.2
20260507082652 50 282 2.6 7.8 0.01 0.09 0.02 89 1015.1
20260507082152 50 275 1.7 7.8 0.00 0.09 0.02 90 1015.1
20260507081653 50 279 4.3 9.6 0.00 0.09 0.02 89 1015.1
20260507081150 50 248 6.1 9.6 0.00 0.09 0.02 89 1015.1
20260507080648 50 257 0.9 7.8 0.00 0.09 0.02 90 1015.1
20260507080145 49 310 5.2 8.7 0.00 0.09 0.02 89 1015.0
20260507075141 49 285 4.3 10.4 0.01 0.09 0.02 89 1014.9
20260507074644 49 300 5.2 10.4 0.01 0.09 0.02 89 1014.9
20260507074142 49 281 2.6 5.2 0.01 0.09 0.02 90 1014.8
20260507073646 49 289 2.6 9.6 0.01 0.09 0.02 90 1014.8
20260507073141 49 289 2.6 9.6 0.01 0.09 0.01 90 1014.6
20260507072640 49 279 4.3 9.6 0.01 0.09 0.01 90 1014.6
20260507072143 49 276 4.3 9.6 0.01 0.09 0.01 89 1014.5
20260507071639 49 289 4.3 10.4 0.01 0.09 0.01 90 1014.4
20260507071138 49 293 4.3 10.4 0.01 0.09 0.01 89 1014.4
20260507070640 49 266 2.6 10.4 0.01 0.09 0.01 90 1014.3
20260507070137 49 345 4.3 10.4 0.01 0.09 0.01 90 1014.3
20260507065636 49 289 3.5 10.4 0.01 0.08 0.01 90 1014.3
20260507065138 49 252 4.3 11.3 0.01 0.08 0.01 89 1014.3
20260507064636 49 271 5.2 11.3 0.01 0.08 0.01 89 1014.2
20260507064134 49 288 6.1 9.6 0.01 0.08 0.01 89 1014.3
20260507063631 49 276 3.5 10.4 0.00 0.08 0.00 89 1014.2
20260507063134 49 296 4.3 10.4 0.00 0.08 0.00 88 1014.2
20260507062631 49 289 2.6 7.8 0.00 0.08 0.00 90 1014.1
20260507062133 49 278 3.5 11.3 0.00 0.08 0.00 89 1014.1
20260507061632 49 292 5.2 11.3 0.00 0.08 0.00 89 1014.1
20260507061130 49 257 2.6 10.4 0.00 0.08 0.00 90 1014.1
20260507060629 48 281 2.6 10.4 0.00 0.08 0.00 90 1013.9
20260507060130 48 317 2.6 9.6 0.00 0.08 0.00 90 1014.0
20260507055627 48 312 1.7 9.6 0.00 0.07 0.00 89 1014.0
20260507055130 48 299 3.5 11.3 0.00 0.07 0.00 89 1013.9
20260507054629 48 283 4.3 11.3 0.00 0.07 0.00 89 1013.8
20260507054126 48 265 3.5 10.4 0.00 0.07 0.00 89 1013.8
20260507053627 48 300 5.2 8.7 0.00 0.07 0.00 89 1013.6
20260507053126 48 266 2.6 7.8 0.00 0.07 0.00 89 1013.7
20260507052624 48 285 4.3 8.7 0.00 0.07 0.00 88 1013.6
20260507052125 48 276 5.2 8.7 0.00 0.07 0.00 88 1013.5
20260507051622 48 286 1.7 8.7 0.00 0.07 0.00 88 1013.6
20260507051124 48 212 3.5 8.7 0.00 0.07 0.00 87 1013.5
20260507050623 48 290 4.3 7.8 0.00 0.07 0.00 87 1013.4
20260507050121 48 292 2.6 6.1 0.00 0.07 0.00 87 1013.4
20260507045621 47 299 3.5 7.8 0.00 0.07 0.00 87 1013.3
20260507045121 47 300 2.6 7.8 0.00 0.07 0.00 87 1013.3
20260507044618 47 274 2.6 6.1 0.00 0.07 0.00 87 1013.2
20260507044118 47 279 3.5 6.1 0.00 0.07 0.00 87 1013.1
20260507043620 47 281 1.7 6.1 0.00 0.07 0.00 87 1013.0
20260507043118 47 275 2.6 6.1 0.00 0.07 0.00 87 1013.0
20260507042615 47 278 0.9 6.1 0.00 0.07 0.00 87 1012.9
20260507042119 47 265 1.7 6.1 0.00 0.07 0.00 87 1012.9
20260507041615 47 316 1.7 6.1 0.00 0.07 0.00 88 1012.9
20260507041113 47 285 2.6 6.1 0.00 0.07 0.00 88 1012.9
20260507040616 46 286 2.6 5.2 0.00 0.07 0.00 88 1012.8
20260507040113 46 274 1.7 5.2 0.00 0.07 0.00 88 1012.8
20260507035611 46 292 2.6 5.2 0.00 0.07 0.00 88 1012.7
20260507035108 46 257 1.7 5.2 0.00 0.07 0.00 88 1012.7
20260507034607 46 252 1.7 5.2 0.00 0.07 0.00 88 1012.5
20260507034104 46 286 1.7 3.5 0.00 0.07 0.00 88 1012.5
20260507033604 46 285 1.7 4.3 0.00 0.07 0.00 88 1012.5
20260507033104 46 210 1.7 6.1 0.00 0.07 0.00 88 1012.5
20260507032605 46 234 1.7 6.1 0.00 0.07 0.00 88 1012.4
20260507032105 45 224 1.7 4.3 0.00 0.07 0.00 89 1012.4
20260507031604 45 268 0.0 3.5 0.00 0.07 0.00 88 1012.5
20260507031104 45 223 1.7 2.6 0.00 0.07 0.00 88 1012.4
20260507030604 45 275 0.9 2.6 0.00 0.07 0.00 88 1012.4
20260507030106 45 257 0.9 2.6 0.00 0.07 0.00 88 1012.4
20260507025604 46 275 0.9 2.6 0.00 0.07 0.00 88 1012.4
20260507025106 46 276 0.0 3.5 0.00 0.07 0.00 88 1012.3
20260507024605 46 243 0.9 3.5 0.00 0.07 0.00 88 1012.3
20260507024105 46 257 0.0 1.7 0.00 0.07 0.00 88 1012.4
20260507023605 46 243 0.9 1.7 0.00 0.07 0.00 88 1012.3
20260507023107 46 231 0.0 5.2 0.00 0.07 0.00 88 1012.2
20260507022605 46 212 1.7 5.2 0.00 0.07 0.00 88 1012.4
20260507022104 46 228 0.9 3.5 0.00 0.07 0.00 89 1012.2
20260507021605 46 227 0.0 3.5 0.00 0.07 0.00 89 1012.3
20260507021105 46 237 0.9 3.5 0.00 0.07 0.00 89 1012.2
20260507020605 46 213 0.0 3.5 0.00 0.07 0.00 89 1012.1
20260507020104 45 206 0.9 3.5 0.00 0.07 0.00 90 1012.0
20260507015604 45 210 0.9 2.6 0.00 0.07 0.00 90 1012.0
20260507015105 45 231 0.9 2.6 0.00 0.07 0.00 90 1012.0
20260507014606 45 214 0.0 0.9 0.00 0.07 0.00 89 1011.9
20260507014104 45 183 0.0 1.7 0.00 0.07 0.00 89 1012.0
20260507013606 46 228 0.9 2.6 0.00 0.07 0.00 89 1012.0
20260507013104 46 171 1.7 2.6 0.00 0.07 0.00 89 1011.9
20260507012607 46 206 0.0 2.6 0.00 0.07 0.00 89 1012.0
20260507012104 46 207 0.9 2.6 0.00 0.07 0.00 89 1011.9
20260507011604 46 182 0.0 1.7 0.00 0.07 0.00 89 1011.9
20260507011105 46 238 0.0 3.5 0.00 0.07 0.00 88 1011.9
20260507010604 46 216 0.9 3.5 0.00 0.07 0.00 88 1011.8
20260507010104 47 214 1.7 3.5 0.00 0.07 0.00 88 1011.9
20260507005604 47 248 0.9 5.2 0.00 0.07 0.00 88 1011.8
20260507005105 47 204 0.9 5.2 0.00 0.07 0.00 88 1011.8
20260507004603 47 245 0.9 3.5 0.00 0.07 0.00 88 1011.8
20260507004104 47 234 0.9 4.3 0.00 0.07 0.00 88 1011.9
20260507003603 47 237 2.6 4.3 0.00 0.07 0.00 89 1011.9
20260507003106 47 276 0.9 5.2 0.00 0.07 0.00 89 1011.9
20260507002603 47 216 1.7 5.2 0.00 0.07 0.00 89 1011.9
20260507002106 47 233 2.6 6.1 0.00 0.07 0.00 89 1011.9
20260507001604 47 199 2.6 6.1 0.00 0.07 0.00 89 1011.9
20260507001105 47 243 1.7 5.2 0.00 0.07 0.00 89 1012.0
20260507000605 47 230 0.9 5.2 0.00 0.07 0.00 89 1011.9
20260506235604 47 173 0.9 2.6 0.00 0.07 0.00 89 1011.9
20260506235104 47 250 0.9 2.6 0.00 0.07 0.00 89 1012.0
20260506234605 47 238 0.9 2.6 0.00 0.07 0.00 89 1012.0
20260506234103 47 251 0.9 3.5 0.00 0.07 0.00 89 1012.0
20260506233605 47 244 1.7 3.5 0.00 0.07 0.00 89 1012.0
20260506233105 47 226 0.9 2.6 0.00 0.07 0.00 89 1012.0
20260506232604 48 266 0.9 4.3 0.00 0.07 0.00 89 1012.0
20260506232104 48 206 0.9 4.3 0.00 0.07 0.00 88 1012.0
20260506231606 48 244 0.9 3.5 0.00 0.07 0.00 88 1011.9
20260506230602 48 282 1.7 5.2 0.00 0.07 0.00 88 1011.7
20260506225602 48 258 0.9 4.3 0.00 0.07 0.00 88 1011.8
20260506225101 48 227 2.6 5.2 0.00 0.07 0.00 88 1011.9
20260506224603 48 279 1.7 5.2 0.00 0.07 0.00 88 1011.9
20260506224101 48 279 2.6 5.2 0.00 0.07 0.00 88 1011.8
20260506223602 48 265 1.7 5.2 0.00 0.07 0.00 88 1011.8
20260506223101 48 227 1.7 6.1 0.00 0.07 0.00 88 1011.9
20260506222602 48 261 0.9 6.1 0.00 0.07 0.00 88 1011.8
20260506222102 48 261 1.7 4.3 0.00 0.07 0.00 88 1011.8
20260506221603 48 241 0.9 5.2 0.00 0.07 0.00 88 1011.7
20260506221100 48 245 1.7 5.2 0.00 0.07 0.00 88 1011.7
20260506220600 48 258 1.7 4.3 0.00 0.07 0.00 87 1011.7
20260506220101 48 272 0.9 5.2 0.00 0.07 0.00 87 1011.6
20260506215557 49 269 3.5 5.2 0.00 0.07 0.07 87 1011.6
20260506215058 49 282 2.6 5.2 0.00 0.07 0.07 87 1011.5
20260506214559 49 271 2.6 5.2 0.00 0.07 0.07 87 1011.5
20260506214056 49 266 1.7 6.1 0.00 0.07 0.07 87 1011.4
20260506213557 49 257 3.5 6.1 0.00 0.07 0.07 87 1011.4
20260506213057 49 206 1.7 4.3 0.00 0.07 0.07 87 1011.4
20260506212554 49 261 0.9 4.3 0.00 0.07 0.07 87 1011.4
20260506212054 49 286 1.7 4.3 0.00 0.07 0.07 87 1011.4
20260506211554 49 238 1.7 7.8 0.00 0.07 0.07 87 1011.2
20260506211052 49 262 2.6 7.8 0.00 0.07 0.07 87 1011.3
20260506210552 49 185 2.6 5.2 0.00 0.07 0.07 87 1011.2
20260506210052 49 255 1.7 5.2 0.00 0.07 0.07 87 1011.1
20260506205550 49 302 1.7 7.8 0.00 0.07 0.07 87 1011.0
20260506205050 49 276 1.7 7.8 0.00 0.07 0.07 87 1011.0
20260506204552 49 282 1.7 8.7 0.00 0.07 0.07 87 1011.1
20260506204049 49 240 4.3 8.7 0.00 0.07 0.07 87 1011.2
20260506203548 49 231 1.7 7.8 0.00 0.07 0.07 87 1011.1
20260506203049 49 283 3.5 6.1 0.00 0.07 0.07 87 1011.1
20260506202546 49 258 1.7 5.2 0.00 0.07 0.07 87 1011.2
20260506202046 49 279 1.7 6.1 0.00 0.07 0.07 87 1011.1
20260506201547 49 240 3.5 6.1 0.00 0.07 0.07 86 1011.1
20260506201043 49 247 1.7 4.3 0.00 0.07 0.07 87 1011.1
20260506200542 49 245 1.7 4.3 0.00 0.07 0.07 87 1011.1
20260506200047 49 261 0.9 8.7 0.00 0.07 0.07 87 1011.2
20260506195542 49 248 1.7 8.7 0.00 0.08 0.07 87 1011.2
20260506195041 49 272 3.5 6.1 0.00 0.08 0.07 87 1011.2
20260506194543 49 235 3.5 6.1 0.00 0.08 0.07 88 1011.1
20260506194041 49 254 0.9 6.1 0.00 0.08 0.07 88 1010.9
20260506193540 49 252 2.6 6.1 0.00 0.08 0.07 88 1010.9
20260506193040 49 234 1.7 5.2 0.00 0.08 0.07 88 1010.8
20260506192536 49 258 1.7 5.2 0.00 0.08 0.07 88 1010.7
20260506192035 49 214 1.7 4.3 0.00 0.08 0.07 88 1010.7
20260506191531 49 235 1.7 4.3 0.00 0.08 0.07 88 1010.7
20260506191035 49 207 1.7 4.3 0.00 0.08 0.07 88 1010.4
20260506190530 50 259 1.7 3.5 0.00 0.08 0.07 88 1010.4
20260506190029 50 213 0.9 4.3 0.00 0.08 0.07 88 1010.3
20260506185530 50 234 0.9 4.3 0.00 0.08 0.07 88 1010.2
20260506185029 50 240 1.7 7.8 0.00 0.08 0.07 88 1010.3
20260506184529 50 251 2.6 7.8 0.00 0.08 0.07 88 1010.3
20260506184030 50 251 2.6 5.2 0.00 0.08 0.07 89 1010.1
20260506183529 50 272 1.7 6.1 0.00 0.08 0.07 88 1010.0
20260506183027 50 217 2.6 6.1 0.00 0.08 0.07 88 1010.0
20260506182527 50 244 3.5 6.1 0.00 0.08 0.07 88 1009.9
20260506182029 50 299 2.6 12.2 0.00 0.08 0.07 88 1009.8
20260506181525 50 316 1.7 12.2 0.00 0.08 0.07 87 1009.8
20260506181024 50 258 4.3 12.2 0.00 0.08 0.07 87 1009.6
20260506180520 50 278 5.2 12.2 0.00 0.08 0.07 87 1009.6
20260506180019 50 254 6.1 11.3 0.00 0.08 0.07 87 1009.6
20260506175521 50 271 7.8 11.3 0.00 0.08 0.07 87 1009.5
20260506175018 50 282 3.5 10.4 0.00 0.08 0.07 87 1009.5
20260506174518 50 285 4.3 10.4 0.00 0.08 0.07 87 1009.5
20260506174020 50 283 6.1 10.4 0.00 0.08 0.07 86 1009.3
20260506173015 51 276 4.3 11.3 0.00 0.08 0.07 86 1009.2
20260506172517 51 306 4.3 8.7 0.00 0.08 0.07 87 1009.0
20260506172012 51 312 3.5 10.4 0.00 0.08 0.07 86 1009.1
20260506171513 51 295 2.6 11.3 0.00 0.08 0.07 86 1008.9
20260506171006 51 298 5.2 11.3 0.00 0.08 0.07 86 1008.8
20260506170509 51 302 4.3 13.0 0.00 0.08 0.07 86 1008.9
20260506170006 51 300 5.2 13.0 0.00 0.08 0.07 87 1008.9
20260506165503 51 278 5.2 12.2 0.00 0.07 0.07 87 1008.9
20260506165004 51 290 6.1 12.2 0.00 0.07 0.07 87 1009.0
20260506164504 51 290 4.3 13.0 0.00 0.07 0.07 88 1009.1
20260506164004 51 262 7.0 13.0 0.00 0.07 0.07 88 1009.1
20260506163504 51 279 4.3 11.3 0.04 0.07 0.07 87 1009.0
20260506163004 51 261 6.1 12.2 0.07 0.07 0.07 88 1009.0
20260506162503 51 262 5.2 13.9 0.07 0.07 0.07 87 1008.8
20260506162003 51 289 3.5 16.5 0.07 0.07 0.07 88 1008.8
20260506161505 52 314 10.4 16.5 0.07 0.07 0.07 87 1008.7
20260506161003 52 262 7.8 14.8 0.07 0.07 0.07 88 1008.7
20260506160504 52 292 8.7 14.8 0.07 0.07 0.07 88 1008.5
20260506160005 52 333 5.2 16.5 0.07 0.07 0.07 89 1008.3
20260506155504 52 279 6.1 19.1 0.07 0.00 0.07 89 1008.5
20260506155005 53 268 7.8 19.1 0.07 0.00 0.07 88 1008.2
20260506154504 53 288 7.8 17.4 0.07 0.00 0.07 87 1008.3
20260506154005 54 216 7.8 20.9 0.07 0.00 0.07 85 1008.3
20260506153503 56 278 10.4 24.3 0.03 0.00 0.02 79 1008.2
20260506153004 59 214 8.7 25.2 0.00 0.00 0.00 66 1007.9
20260506152504 63 228 13.0 25.2 0.00 0.00 0.00 57 1007.3
20260506152004 65 235 0.9 2.6 0.00 0.00 0.00 54 1006.8
20260506151503 65 265 0.9 4.3 0.00 0.00 0.00 51 1006.5
20260506151005 66 233 0.9 4.3 0.00 0.00 0.00 50 1006.2
20260506150503 67 162 0.9 4.3 0.00 0.00 0.00 50 1006.1
20260506150004 67 157 3.5 4.3 0.00 0.00 0.00 50 1006.2
20260506145503 66 221 0.0 3.5 0.00 0.00 0.00 55 1006.4
20260506145006 66 173 1.7 2.6 0.00 0.00 0.00 52 1006.5
20260506144503 65 195 0.9 2.6 0.00 0.00 0.00 53 1006.5
20260506144004 65 274 1.7 4.3 0.00 0.00 0.00 54 1006.6
20260506143504 65 224 1.7 6.1 0.00 0.00 0.00 53 1006.5
20260506143001 64 251 0.9 6.1 0.00 0.00 0.00 54 1006.6
20260506142503 65 266 3.5 5.2 0.00 0.00 0.00 54 1006.6
20260506142001 65 224 1.7 4.3 0.00 0.00 0.00 54 1006.5
20260506141501 64 223 0.9 5.2 0.00 0.00 0.00 58 1006.1
20260506141001 64 203 0.9 5.2 0.00 0.00 0.00 56 1006.6
20260506140501 63 243 1.7 3.5 0.00 0.00 0.00 58 1006.7
20260506140001 63 261 1.7 3.5 0.00 0.00 0.00 60 1006.8
20260506135500 63 266 0.9 1.7 0.00 0.00 0.00 59 1006.7
20260506135003 63 289 0.9 1.7 0.00 0.00 0.00 60 1006.7
20260506134459 63 262 0.0 2.6 0.00 0.00 0.00 60 1006.9
20260506133958 63 276 0.9 3.5 0.00 0.00 0.00 56 1006.9
20260506133454 64 248 0.9 4.3 0.00 0.00 0.00 57 1007.0
20260506132954 64 220 1.7 4.3 0.00 0.00 0.00 52 1006.9
20260506132455 64 164 0.9 3.5 0.00 0.00 0.00 53 1006.8
20260506131954 65 240 2.6 3.5 0.00 0.00 0.00 52 1006.8
20260506131451 65 164 0.9 3.5 0.00 0.00 0.00 52 1006.7
20260506130952 65 130 0.9 4.3 0.00 0.00 0.00 52 1006.7
20260506130451 65 159 1.7 4.3 0.00 0.00 0.00 52 1006.8
20260506125948 65 137 2.6 4.3 0.00 0.00 0.00 52 1006.7
20260506125447 65 151 1.7 4.3 0.00 0.00 0.00 53 1006.7
20260506124943 65 96 0.9 4.3 0.00 0.00 0.00 53 1006.6
20260506124442 66 147 2.6 4.3 0.00 0.00 0.00 53 1006.6
20260506123941 65 202 0.9 2.6 0.00 0.00 0.00 53 1006.6
20260506123441 65 252 0.0 2.6 0.00 0.01 0.00 52 1006.6
20260506122939 65 121 0.0 2.6 0.00 0.01 0.00 53 1006.7
20260506122440 65 147 1.7 3.5 0.00 0.01 0.00 53 1006.6
20260506121941 64 134 1.7 3.5 0.00 0.01 0.00 53 1006.7
20260506121437 64 127 0.9 5.2 0.00 0.01 0.00 54 1006.7
20260506120936 64 192 1.7 5.2 0.00 0.01 0.00 55 1006.7
20260506120437 65 117 2.6 6.1 0.00 0.01 0.00 55 1006.6
20260506115936 65 87 1.7 6.1 0.00 0.01 0.00 54 1006.8
20260506115434 66 140 1.7 3.5 0.00 0.01 0.00 54 1006.8
20260506114935 66 206 0.0 1.7 0.00 0.01 0.00 53 1006.7
20260506114432 65 155 0.0 3.5 0.00 0.01 0.00 55 1006.7
20260506113933 65 28 0.0 4.3 0.00 0.01 0.00 54 1006.8
20260506113428 65 247 1.7 4.3 0.00 0.01 0.00 53 1006.9